Weather History for Kendall, FL

Change the Weather History Date:

Wednesday, August 28, 2013

  Actual Average Record
Temperature  
Mean Temperature 78 °F -  
Max Temperature 84 °F 89 °F 113 °F (2004)
Min Temperature 71 °F 72 °F 71 °F (1990)
Cooling Degree Days 12    
Growing Degree Days 28 (Base 50)    
Moisture  
Dew Point 72 °F    
Average Humidity 86    
Maximum Humidity 100    
Minimum Humidity 65    
Precipitation  
Precipitation 0.36 in - - ()
Sea Level Pressure  
Sea Level Pressure 30.01 in    
Wind  
Wind Speed 5 mph (ESE)    
Max Wind Speed 13 mph    
Max Gust Speed -    
Visibility 9 miles    
Events Rain , Thunderstorm    
Averages and records for this station are not official NWS values.
T = Trace of Precipitation, MM = Missing Value Source: NWS Daily Summary

Daily Weather History Graph

Daily Weather History Graph

Search for Another Location

Airport:

Trip Planner

Search our weather history database for the weather conditions in past years. The results will help you decide how hot, cold, wet, or windy it might be!

Date:

Astronomy

Aug. 28, 2013 Rise Set
Actual Time 7:00 AM EDT 7:44 PM EDT
Civil Twilight 6:37 AM EDT 8:08 PM EDT
Nautical Twilight 6:09 AM EDT 8:35 PM EDT
Astronomical Twilight 5:41 AM EDT 9:03 PM EDT
Moon 12:22 AM EDT (8/28) 2:04 PM EDT (8/28)
Length of Visible Light 13h 31m
Length of Day
12h 44m
Waning Gibbous, 47% of the Moon is Illuminated
Aug 28
Waning Gibbous
Sep 5
New
Sep 12
First Quarter
Sep 19
Full
Sep 26
Last Quarter

Hourly Weather History & Observations

Time (EDT) Temp. Heat Index Dew Point Humidity Pressure Visibility Wind Dir Wind Speed Gust Speed Precip Events Conditions
12:53 AM 77.0 °F - 72.0 °F 84% 30.01 in 10.0 mi ENE 5.8 mph - N/A   Clear
1:53 AM 75.9 °F - 72.0 °F 87% 29.99 in 10.0 mi NE 4.6 mph - N/A   Partly Cloudy
2:53 AM 75.0 °F - 71.1 °F 87% 29.97 in 10.0 mi NE 4.6 mph - N/A   Clear
3:53 AM 73.9 °F - 71.1 °F 91% 29.96 in 10.0 mi Calm Calm - N/A   Clear
4:53 AM 75.0 °F - 72.0 °F 90% 29.96 in 10.0 mi NE 4.6 mph - N/A   Clear
5:42 AM 73.4 °F - 69.8 °F 88% 29.99 in 10.0 mi SSW 12.7 mph - N/A   Overcast
5:53 AM 72.0 °F - 70.0 °F 93% 29.99 in 3.0 mi SW 10.4 mph - 0.06 in Rain Heavy Rain
6:01 AM 71.6 °F - 71.6 °F 100% 29.99 in 2.5 mi SSW 9.2 mph - 0.04 in Rain Rain
6:08 AM 71.6 °F - 71.6 °F 100% 29.99 in 5.0 mi South 8.1 mph - 0.06 in Rain Rain
6:53 AM 72.0 °F - 72.0 °F 100% 30.01 in 8.0 mi SSE 3.5 mph - 0.14 in Rain Light Rain
7:53 AM 72.0 °F - 72.0 °F 100% 30.02 in 10.0 mi Calm Calm - 0.03 in   Scattered Clouds
8:43 AM 71.6 °F - 71.6 °F 100% 30.03 in 8.0 mi NW 3.5 mph - 0.03 in Rain , Thunderstorm Thunderstorms and Rain
8:53 AM 72.0 °F - 72.0 °F 100% 30.04 in 4.0 mi Calm Calm - 0.05 in Rain , Thunderstorm Thunderstorms and Rain
9:37 AM 71.6 °F - - N/A% 30.03 in 10.0 mi North 3.5 mph - 0.06 in Rain Light Rain
9:53 AM 72.0 °F - - N/A% 30.05 in 10.0 mi North 3.5 mph - 0.07 in Rain Light Rain
10:53 AM 73.0 °F - - N/A% 30.05 in 9.0 mi East 8.1 mph - 0.00 in Rain Light Rain
11:53 AM 78.1 °F - - N/A% 30.04 in 10.0 mi East 6.9 mph - 0.01 in Rain Light Rain
12:53 PM 82.0 °F 92.8 °F 80.1 °F 94% 30.04 in 10.0 mi East 5.8 mph - 0.00 in Rain Light Rain
1:53 PM 82.0 °F 86.7 °F 72.0 °F 71% 30.04 in 10.0 mi SE 8.1 mph - 0.00 in   Mostly Cloudy
2:53 PM 82.0 °F 87.4 °F 73.0 °F 74% 30.01 in 10.0 mi Variable 5.8 mph - N/A   Scattered Clouds
3:53 PM 84.0 °F 91.2 °F 73.9 °F 72% 29.99 in 10.0 mi SE 6.9 mph - N/A   Clear
4:53 PM 84.0 °F 89.6 °F 72.0 °F 67% 29.98 in 10.0 mi SE 8.1 mph - N/A   Clear
5:53 PM 82.9 °F 87.0 °F 70.0 °F 65% 29.97 in 10.0 mi SSE 6.9 mph - N/A   Clear
6:53 PM 82.9 °F 88.0 °F 72.0 °F 69% 29.98 in 10.0 mi South 5.8 mph - N/A   Clear
7:53 PM 80.1 °F 83.8 °F 72.0 °F 76% 29.99 in 10.0 mi SE 3.5 mph - N/A   Scattered Clouds
8:53 PM 77.0 °F - 72.0 °F 84% 30.00 in 10.0 mi ESE 3.5 mph - N/A   Clear
9:53 PM 77.0 °F - 73.0 °F 88% 30.03 in 10.0 mi Calm Calm - N/A   Clear
10:53 PM 78.1 °F - 73.0 °F 84% 30.04 in 10.0 mi SE 3.5 mph - N/A   Clear
11:53 PM 73.9 °F - 72.0 °F 93% 30.04 in 10.0 mi Calm Calm - N/A   Clear